#timestamp,LO_Frequency,Hit,StdDev 
1514692815.1,286047000.9,N
1514692835.8,286047000.7,N
1514692855.7,286047000.7,N
1514692875.5,286046998.5,N
1514692895.4,286046997.1,N
1514692915.2,286046997.5,N
1514692935.0,286046998.8,N
1514692935.9,286046998.8,N
1514692955.8,286046999.9,N
1514692975.6,286046998.1,N
1514692995.5,286046998.6,N
1514693015.3,286047002.6,N
1514693035.1,286047003.4,N
1514693055.9,286047005.8,N
1514693075.7,286047003.2,N
1514693095.5,286047004.5,N
1514693115.4,286047005.1,N
1514693135.2,286047006.8,N
1514693155.1,286047006.6,N
1514693156.0,286047006.6,N
1514693175.8,286047007.2,N
1514693195.6,286047005.7,N
1514693215.5,286047007.6,N
1514693235.3,286047006.3,N
1514693255.2,286047006.2,N
1514693275.9,286047007.0,N
1514693295.7,286047003.8,N
1514693315.6,286046999.8,N
1514693335.4,286047003.8,N
1514693355.2,286047005.1,N
1514693375.1,286047005.9,N
1514693376.0,286047005.9,N
1514693395.8,286047004.6,N
1514693415.7,286047006.9,N
1514693435.5,286047005.4,N
1514693455.3,286047003.5,N
1514693475.2,286047001.8,N
1514693495.0,286047001.8,N
1514693495.9,286047001.8,N
1514693515.8,286047002.3,N
1514693535.6,286047001.9,N
1514693555.4,286047003.6,N
1514693575.3,286047002.0,N
1514693595.1,286047001.8,N
1514693615.8,286047001.5,N
1514693635.7,286047001.6,N
1514693655.5,286047002.6,N
1514693675.4,286047000.9,N
1514693695.2,286047002.0,N
1514693715.0,286047002.9,N
1514693715.9,286047002.9,N
1514693735.8,286047002.2,N
1514693755.6,286047003.9,N
1514693775.5,286046999.7,N
1514693795.3,286047000.7,N
1514693815.1,286047000.2,N
1514693835.9,286047004.3,N
1514693855.7,286047005.8,Y
1514693875.5,286047002.8,P
1514693895.4,286046998.4,P
1514693915.2,286046998.1,N
1514693935.1,286046998.9,N
1514693936.0,286046998.9,N
1514693955.8,286046997.1,N
1514693975.6,286046999.0,N
1514693995.5,286046998.1,N
1514694015.3,286047000.9,N
1514694065.2,286047002.6,E
1514694075.1,286047000.8,N
1514694095.8,286046999.0,P
1514694115.7,286046996.7,P
1514694135.5,286046997.1,N
1514694155.4,286046999.6,N
1514694175.2,286046997.3,N
1514694195.0,286046999.3,N
1514694195.9,286046999.3,N
1514694215.8,286046998.4,N
1514694235.6,286046999.4,N
1514694255.5,286046999.5,N
1514694275.3,286047001.1,N
1514694295.1,286046999.3,N
1514694315.9,286046996.6,N
1514694335.7,286046998.4,N
1514694355.5,286046997.7,N
1514694375.4,286046999.6,N
1514694395.2,286046997.3,N
1514694415.1,286046997.8,N
1514694416.0,286046997.8,N
1514694435.8,286046997.5,N
1514694455.6,286047000.4,N
1514694475.5,286046999.8,N
1514694495.3,286047000.4,N
1514694515.2,286046997.3,N
1514694535.9,286046996.7,N
1514694555.7,286046996.1,N
1514694575.6,286046991.7,Y
1514694595.4,286046995.5,P
1514694615.3,286046998.6,N
1514694635.1,286047001.0,N
1514694666.0,286046998.2,E
1514694675.0,286046999.4,N
1514694675.9,286046999.4,P
1514694725.8,286047001.8,E
1514694735.7,286047002.1,N
1514694755.6,286047000.2,P
1514694775.4,286047000.6,N
1514694795.3,286046994.9,Y
1514694815.1,286046994.1,P
1514694835.8,286046993.7,N
1514694855.7,286046996.0,N
1514694875.5,286046998.0,N
1514694895.4,286046997.3,N
1514694915.2,286046996.5,N
1514694935.0,286046997.7,N
1514694935.9,286046997.7,N
1514694955.8,286046995.4,N
1514694975.6,286046998.0,N
1514694995.5,286046995.4,N
1514695015.3,286046996.3,N
1514695035.1,286046996.4,N
1514695055.9,286046997.6,N
1514695075.7,286046999.3,N
1514695095.5,286047000.6,N
1514695115.4,286046998.2,N
1514695135.2,286046997.1,N
1514695155.1,286046996.7,N
1514695156.0,286046996.7,N
1514695175.8,286046999.2,N
1514695195.6,286046998.0,N
1514695215.5,286046997.9,N
1514695235.3,286046998.9,N
1514695255.2,286046997.3,N
1514695275.9,286046999.1,N
1514695295.7,286047000.9,N
1514695315.6,286046998.2,N
1514695335.4,286046999.1,N
1514695355.2,286046995.0,N
1514695375.1,286046995.4,N
1514695376.0,286046995.4,N
1514695395.8,286046997.5,N
1514695415.7,286046999.0,N
1514695435.5,286046997.7,N
1514695455.3,286046996.2,N
1514695475.2,286046993.9,Y
1514695495.0,286046995.3,P
1514695495.9,286046995.3,P
1514695515.8,286046997.5,N
1514695535.6,286047000.2,N
1514695555.4,286047000.3,N
1514695575.3,286047000.2,N
1514695595.1,286046999.8,N
1514695615.9,286047002.0,N
1514695635.7,286047002.7,N
1514695655.5,286047000.6,N
1514695675.4,286047001.0,N
1514695695.2,286047001.0,N
1514695715.0,286047000.0,N
1514695715.9,286047000.0,N
1514695735.8,286047000.9,N
1514695755.6,286047001.1,N
1514695775.5,286046999.5,N
1514695795.3,286047001.2,N
1514695815.1,286046998.5,N
1514695835.9,286047002.8,N
1514695855.7,286047002.0,N
1514695875.6,286047000.5,N
1514695895.4,286047001.0,N
1514695915.2,286047000.6,N
1514695935.1,286047002.3,N
1514695936.0,286047002.3,N
1514695955.8,286047001.8,N
1514695975.6,286047001.7,N
1514695995.5,286047003.9,N
1514696015.3,286047001.1,N
1514696035.2,286046998.3,N
1514696055.9,286047000.6,N
1514696075.7,286047002.7,N
1514696095.6,286047001.0,N
1514696115.4,286046998.2,N
1514696135.3,286046998.6,N
1514696155.1,286046996.7,N
1514696156.0,286046996.7,N
1514696175.8,286046999.6,N
1514696195.7,286046999.2,N
1514696215.5,286046999.1,N
1514696235.4,286046996.9,N
1514696255.2,286046996.9,N
1514696275.0,286046997.0,N
1514696275.9,286046997.0,N
1514696295.8,286046997.9,N
1514696315.6,286046998.4,N
1514696335.4,286047001.1,N
1514696355.3,286046998.1,N
1514696375.1,286047001.1,N
1514696395.9,286047002.4,N
